Location: Eaton Estates
(41.3089°N, 82.0057°W)
Time: 13:50:38
(UTC+00:00)

USA 308 - Pass Details

Date: 24 October 2021
Orbit: 565 x 570 km, 54.0° (Epoch: 04 December)

Event Time Altitude Azimuth Distance (km) Brightness Sun altitude
Exits shadow 09:38:54 42° 152° (SSE) 822 3.8 -25.3°
Maximum altitude 09:39:21 44° 133° (SE) 801 3.8 -25.2°
Drops below altitude 10° 09:43:25 10° 61° (ENE) 1,879 6.4 -24.4°
Sets 09:45:44 0° 55° (NE) 2,780 7.4 -24.0°
